Location: Roanoke
(37.2710°N, 79.9420°W)
Time: 02:49:33
(UTC-05:00)

S-56A Canister/Altair - Pass Details

Date: 24 November 2019
Orbit: 632 x 2500 km, 38.9° (Epoch: 15 December)

Event Time Altitude Azimuth Distance (km) Brightness Sun altitude
Rises 21:49:22 0° 284° (WNW) 3,993 11.7 -56.0°
Enters shadow 21:51:26 - 278° (W) 3,272 11.2 -56.4°
Reaches altitude 10° 21:53:06 10° 270° (W) 2,719 - -56.7°
Maximum altitude 21:57:42 22° 222° (SW) 1,692 - -57.5°
Drops below altitude 10° 22:01:28 10° 171° (S) 2,155 - -58.2°
Sets 22:04:03 0° 155° (SSE) 2,965 - -58.7°
